FW9698 Weather Reports


Display with metric or nautical units.
time (UTC)temp
F
wind
direction
speed
MPH
gust
MPH
rain 1hr
in
rain 24hr
in
rain mn
in
humidity
%
barometer
mb
20260505225827 75 322 3.0 7.0 0.00 0.00 0.00 58 1007.8
20260505224825 76 299 4.0 8.0 0.00 0.00 0.00 56 1008.2
20260505222824 77 312 3.0 7.0 0.00 0.00 0.00 55 1007.4
20260505220926 79 298 4.0 8.0 0.00 0.00 0.00 47 1006.8
20260505215925 80 307 3.0 5.0 0.00 0.00 0.00 46 1006.9
20260505214025 81 308 2.0 5.0 0.00 0.00 0.00 43 1006.8
20260505213025 82 313 1.0 3.0 0.00 0.00 0.00 42 1007.0
20260505212025 83 286 3.0 4.0 0.00 0.00 0.00 40 1007.2
20260505211024 84 306 4.0 9.0 0.00 0.00 0.00 41 1007.0
20260505210025 87 286 5.0 8.0 0.00 0.00 0.00 47 1007.0
20260505205025 87 280 2.0 4.0 0.00 0.00 0.00 47 1007.0
20260505204025 86 296 2.0 6.0 0.00 0.00 0.00 49 1007.0
20260505203025 86 319 3.0 9.0 0.00 0.00 0.00 53 1006.9
20260505202026 86 223 2.0 3.0 0.00 0.00 0.00 54 1006.9
20260505201026 85 166 2.0 4.0 0.00 0.00 0.00 54 1006.9
20260505200042 84 96 1.0 4.0 0.00 0.00 0.00 53 1006.9
20260505195123 84 143 2.0 5.0 0.00 0.00 0.00 53 1007.2
20260505194126 84 194 1.0 4.0 0.00 0.00 0.00 57 1007.2
20260505193224 83 195 0.0 1.0 0.00 0.00 0.00 54 1007.2
20260505192225 82 308 1.0 5.0 0.00 0.00 0.00 53 1007.1
20260505191225 83 71 1.0 4.0 0.00 0.00 0.00 51 1007.0
20260505190225 83 150 2.0 5.0 0.00 0.00 0.00 51 1006.8
20260505185227 84 283 2.0 5.0 0.00 0.00 0.00 55 1006.8
20260505184323 82 50 1.0 4.0 0.00 0.00 0.00 53 1006.7
20260505183343 82 140 3.0 7.0 0.00 0.00 0.00 54 1006.7
20260505182425 81 148 2.0 5.0 0.00 0.00 0.00 54 1007.0
20260505181524 81 129 3.0 6.0 0.00 0.00 0.00 57 1007.1
20260505180526 80 318 2.0 6.0 0.00 0.00 0.00 59 1007.0
20260505175525 80 155 3.0 7.0 0.00 0.00 0.00 59 1007.1
20260505174526 79 166 1.0 4.0 0.00 0.00 0.00 62 1007.1
20260505173524 79 179 0.0 2.0 0.00 0.00 0.00 60 1006.8
20260505172623 78 153 2.0 6.0 0.00 0.00 0.00 61 1006.7
20260505171625 78 145 2.0 3.0 0.00 0.00 0.00 61 1006.8
20260505170625 77 130 4.0 7.0 0.00 0.00 0.00 61 1006.6
20260505165724 77 143 4.0 10.0 0.00 0.00 0.00 62 1006.8
20260505164725 77 161 1.0 4.0 0.00 0.00 0.00 62 1006.8
20260505163725 77 155 3.0 7.0 0.00 0.00 0.00 63 1006.5
20260505161725 76 138 1.0 6.0 0.00 0.00 0.00 62 1006.7
20260505151825 76 141 4.0 9.0 0.00 0.00 0.00 62 1006.7
20260505150923 76 124 3.0 8.0 0.00 0.00 0.00 64 1006.7
20260505130124 72 137 3.0 6.0 0.00 0.00 0.00 67 1006.1
20260505124125 71 136 0.0 8.0 0.00 0.00 0.00 67 1006.0
20260505123223 71 134 4.0 6.0 0.00 0.00 0.00 68 1005.9
20260505121223 71 147 2.0 5.0 0.00 0.00 0.00 67 1005.7
20260505121123 71 143 4.0 6.0 0.00 0.00 0.00 67 1005.6
20260505120125 71 132 3.0 7.0 0.00 0.00 0.00 67 1005.5
20260505113225 71 130 3.0 6.0 0.00 0.00 0.00 67 1005.4
20260505112224 72 103 0.0 3.0 0.00 0.00 0.00 67 1005.5
20260505111224 72 140 2.0 7.0 0.00 0.00 0.00 65 1005.4
20260505110322 72 148 4.0 8.0 0.00 0.00 0.00 67 1005.3
20260505101324 71 144 3.0 6.0 0.00 0.00 0.00 67 1005.3
20260505094424 71 137 6.0 10.0 0.00 0.00 0.00 67 1005.2
20260505093424 72 142 2.0 5.0 0.00 0.00 0.00 67 1005.4
20260505092425 72 143 4.0 11.0 0.00 0.00 0.00 66 1005.5
20260505090424 72 119 4.0 6.0 0.00 0.00 0.00 65 1005.4
20260505085441 72 127 4.0 8.0 0.00 0.00 0.00 65 1005.4
20260505084425 72 124 2.0 6.0 0.00 0.00 0.00 65 1005.4
20260505083424 72 133 5.0 9.0 0.00 0.00 0.00 64 1005.3
20260505082425 72 134 4.0 6.0 0.00 0.00 0.00 64 1005.4
20260505081423 72 145 4.0 11.0 0.00 0.00 0.00 64 1005.5
20260505080423 72 136 3.0 5.0 0.00 0.00 0.00 63 1005.8
20260505075523 72 142 5.0 11.0 0.00 0.00 0.00 63 1005.8
20260505074622 72 138 5.0 9.0 0.00 0.00 0.00 63 1006.0
20260505073624 72 133 7.0 11.0 0.00 0.00 0.00 63 1006.1
20260505072624 72 146 2.0 3.0 0.00 0.00 0.00 62 1006.3
20260505071723 72 125 4.0 12.0 0.00 0.00 0.00 61 1006.4
20260505070723 72 141 4.0 7.0 0.00 0.00 0.00 62 1006.5
20260505065723 73 133 4.0 7.0 0.00 0.00 0.00 61 1006.4
20260505064822 73 151 2.0 8.0 0.00 0.00 0.00 60 1006.6
20260505062824 73 126 5.0 15.0 0.00 0.00 0.00 59 1006.7
20260505061825 74 147 5.0 16.0 0.00 0.00 0.00 60 1006.7
20260505060922 74 146 4.0 7.0 0.00 0.00 0.00 59 1006.8
20260505055924 74 140 6.0 10.0 0.00 0.00 0.00 60 1006.8
20260505054923 74 148 4.0 9.0 0.00 0.00 0.00 59 1006.8
20260505054824 74 134 3.0 7.0 0.00 0.00 0.00 59 1006.8
20260505053922 74 141 3.0 5.0 0.00 0.00 0.00 58 1007.0
20260505052925 74 132 2.0 5.0 0.00 0.00 0.00 59 1007.0
20260505051022 73 132 4.0 10.0 0.00 0.00 0.00 60 1007.4
20260505041128 73 137 4.0 7.0 0.00 0.00 0.00 58 1007.7
20260505040128 73 142 4.0 7.0 0.00 0.00 0.00 58 1007.8
20260505035228 73 136 3.0 5.0 0.00 0.00 0.00 59 1007.8
20260505034229 74 142 5.0 10.0 0.00 0.00 0.00 58 1007.8
20260505033229 74 141 8.0 15.0 0.00 0.00 0.00 57 1008.1
20260505032229 74 137 4.0 7.0 0.00 0.00 0.00 56 1008.2
20260505031229 74 144 4.0 7.0 0.00 0.00 0.00 57 1008.1
20260505030229 74 136 3.0 8.0 0.00 0.00 0.00 57 1007.9
20260505025245 74 136 4.0 7.0 0.00 0.00 0.00 57 1008.1
20260505024329 74 133 4.0 8.0 0.00 0.00 0.00 55 1008.1
20260505023328 75 137 3.0 4.0 0.00 0.00 0.00 55 1008.1
20260505022329 75 133 4.0 8.0 0.00 0.00 0.00 54 1008.1
20260505021328 75 136 4.0 6.0 0.00 0.00 0.00 55 1008.0
20260505020428 75 135 3.0 6.0 0.00 0.00 0.00 54 1007.9
20260505015429 75 140 4.0 7.0 0.00 0.00 0.00 53 1008.0
20260505014427 75 135 3.0 5.0 0.00 0.00 0.00 53 1007.9
20260505013427 75 127 4.0 8.0 0.00 0.00 0.00 54 1007.7
20260505012526 76 133 4.0 5.0 0.00 0.00 0.00 53 1007.8
20260505011527 76 142 6.0 13.0 0.00 0.00 0.00 52 1007.6
20260505010529 76 154 4.0 7.0 0.00 0.00 0.00 52 1007.4
20260505003626 77 121 6.0 16.0 0.00 0.00 0.00 51 1007.7
20260505002628 77 142 9.0 15.0 0.00 0.00 0.00 51 1007.8
20260505000729 78 140 5.0 8.0 0.00 0.00 0.00 50 1007.9
20260505000629 78 132 5.0 13.0 0.00 0.00 0.00 50 1007.9
20260504234627 78 154 7.0 13.0 0.00 0.00 0.00 50 1008.1
20260504233629 79 147 3.0 7.0 0.00 0.00 0.00 49 1008.0
20260504232645 79 140 6.0 10.0 0.00 0.00 0.00 48 1008.0
20260504231727 79 130 4.0 8.0 0.00 0.00 0.00 47 1008.2